Kbely Air Base

Jump to: basic info | weather | frequencies | runways | comments

Related pages: nearby airports | nearby navaids | notams | map

Basic information (top)

Codes: LKKB
Location: lon 50.121399, lat 14.543600, elev 939 ft / 286 m msl
Status: medium_airport

Weather (top)

Current conditions (rec'd 2015/03/27 07:00Z):

LKKB 270700Z 24007KT 5000 BR FEW017 OVC032 05/04 Q1012 NOSIG

Airport forecast (rec'd 2015/03/24 06:00Z):

TAF LKKB 240500Z 2406/2506 21007KT CAVOK 
      TEMPO 2406/2414 9999 SCT025 
      BECMG 2420/2422 VRB02KT PROB30 2502/2506 6000 SCT015

Frequencies (top)

Verify before use: may be inaccurate or out of date.

APP: 124.675 MHz (APP)
GCA: 123.3 MHz (PRECISION)
TWR: 120.875 MHz (TWR)

Runways (top)

06/24: 6,562 x 148 ft (2,000 x 45 m) — paved — lighted

Latest comments (top)

No comments yet for Kbely Air Base

More... (top)

See also NOTAMs and nearby airports and navaids, or visit the Kbely Air Base page at the main OurAirports website..